EW6724 Weather Reports


time (UTC)temp
F
wind
direction
speed
knots
gust
knots
rain 1hr
in
rain 24hr
in
rain mn
in
humidity
%
barometer
mb
20260506134026 55 0 0.0 0.0 0.00 0.00 0.00 88 1020.3
20260506133004 55 0 0.0 0.0 0.00 0.00 0.00 88 1020.2
20260506132005 55 0 0.0 0.0 0.00 0.00 0.00 88 1020.1
20260506131004 55 181 0.0 1.7 0.00 0.00 0.00 88 1020.0
20260506130005 55 0 0.0 0.0 0.00 0.00 0.00 88 1020.0
20260506125004 55 0 0.0 0.0 0.00 0.00 0.00 88 1020.0
20260506124025 55 181 0.0 0.9 0.00 0.00 0.00 88 1019.9
20260506123004 55 0 0.0 1.7 0.00 0.00 0.00 88 1019.9
20260506122025 55 181 0.0 1.7 0.00 0.00 0.00 88 1019.8
20260506121004 55 177 0.0 2.6 0.00 0.00 0.00 87 1019.8
20260506120004 55 170 0.0 1.7 0.00 0.00 0.00 87 1019.8
20260506115025 55 164 0.0 1.7 0.00 0.00 0.00 87 1019.7
20260506114004 55 165 0.0 1.7 0.00 0.00 0.00 87 1019.7
20260506113004 55 165 0.0 1.7 0.00 0.00 0.00 87 1019.7
20260506112004 56 0 0.0 0.0 0.00 0.00 0.00 87 1019.6
20260506111004 56 175 0.0 1.7 0.00 0.00 0.00 87 1019.5
20260506110004 56 175 0.0 1.7 0.00 0.00 0.00 87 1019.4
20260506105004 56 175 0.0 0.9 0.00 0.00 0.00 87 1019.4
20260506104004 56 154 0.0 1.7 0.00 0.00 0.00 87 1019.3
20260506103004 56 146 0.0 1.7 0.00 0.00 0.00 87 1019.2
20260506102026 56 152 0.0 1.7 0.00 0.00 0.00 86 1019.2
20260506101025 56 164 0.0 1.7 0.00 0.00 0.00 87 1019.2
20260506100004 56 0 0.0 1.7 0.00 0.00 0.00 86 1019.1
20260506095025 56 0 0.0 0.0 0.00 0.00 0.00 86 1019.0
20260506094003 56 167 0.0 1.7 0.00 0.00 0.00 86 1019.1
20260506093004 56 168 0.0 1.7 0.00 0.00 0.00 87 1019.1
20260506092003 56 166 0.0 1.7 0.00 0.00 0.00 86 1019.1
20260506091024 56 166 0.0 2.6 0.00 0.00 0.00 86 1019.1
20260506090004 56 164 0.0 1.7 0.00 0.01 0.00 86 1019.2
20260506085003 56 172 0.0 1.7 0.00 0.01 0.00 86 1019.2
20260506084024 56 145 0.0 1.7 0.00 0.01 0.00 86 1019.2
20260506083004 56 167 0.0 2.6 0.00 0.01 0.00 86 1019.3
20260506082004 56 188 0.0 3.5 0.00 0.02 0.00 86 1019.1
20260506081024 56 177 0.0 2.6 0.00 0.02 0.00 86 1019.1
20260506073025 56 187 0.0 1.7 0.00 0.02 0.00 86 1018.9
20260506072003 56 175 0.0 1.7 0.00 0.02 0.00 86 1018.8
20260506071003 56 174 0.0 2.6 0.00 0.02 0.00 86 1018.6
20260506062003 56 166 0.0 3.5 0.00 0.03 0.02 85 1018.3
20260506061003 56 96 0.0 2.6 0.00 0.07 0.02 84 1018.1
20260506051003 57 153 0.0 3.5 0.00 0.07 0.02 83 1017.8
20260506045024 57 164 0.9 4.3 0.00 0.07 0.02 82 1017.7
20260506044003 58 147 0.0 1.7 0.00 0.07 0.02 82 1017.5
20260506043006 58 169 0.0 2.6 0.00 0.07 0.02 81 1017.1
20260506042027 58 170 0.9 4.3 0.00 0.07 0.02 80 1016.9
20260506041006 58 167 0.9 3.5 0.00 0.07 0.02 79 1016.7
20260506040006 59 172 0.9 4.3 0.00 0.07 0.02 77 1016.6
20260506035006 59 170 0.9 3.5 0.00 0.07 0.02 76 1016.6
20260506034006 60 170 0.9 3.5 0.00 0.07 0.02 75 1016.3
20260506033006 60 170 0.9 2.6 0.00 0.07 0.02 74 1016.2
20260506032006 60 177 0.9 4.3 0.00 0.07 0.02 73 1015.9
20260506031006 61 175 0.9 1.7 0.00 0.07 0.02 73 1015.8
20260506030027 61 166 0.9 2.6 0.00 0.07 0.02 72 1015.8
20260506025027 62 184 0.0 3.5 0.00 0.07 0.02 72 1015.6
20260506024006 62 184 0.9 2.6 0.00 0.07 0.02 71 1015.6
20260506023006 63 170 0.0 1.7 0.00 0.07 0.02 70 1015.6
20260506022005 63 179 0.0 3.5 0.00 0.08 0.02 69 1015.4
20260506021006 64 166 0.9 3.5 0.00 0.08 0.02 68 1015.4
20260506020006 65 204 0.0 1.7 0.00 0.09 0.02 67 1015.2
20260506015006 66 175 0.0 2.6 0.00 0.11 0.02 66 1015.1
20260506014005 66 206 0.0 2.6 0.00 0.12 0.02 65 1015.1
20260506013006 67 176 0.0 4.3 0.00 0.13 0.02 64 1015.0
20260506012005 68 169 0.9 1.7 0.00 0.13 0.02 63 1014.9
20260506011005 67 210 0.0 1.7 0.00 0.14 0.02 64 1014.9
20260506010006 66 250 0.9 6.1 0.00 0.15 0.02 66 1014.9
20260506005006 66 247 0.9 3.5 0.00 0.15 0.02 67 1014.9
20260506004026 65 250 0.9 6.1 0.00 0.15 0.02 66 1014.9
20260506003005 66 216 0.9 2.6 0.00 0.16 0.02 67 1014.8
20260506002006 66 250 0.9 3.5 0.00 0.17 0.02 67 1014.7
20260506001006 66 248 0.9 3.5 0.00 0.17 0.02 65 1014.6
20260506000005 66 261 0.9 3.5 0.00 0.18 0.02 66 1014.6
20260505235005 67 254 0.9 6.1 0.00 0.18 0.02 65 1014.5
20260505234005 67 171 0.0 2.6 0.00 0.19 0.02 66 1014.5
20260505233005 68 196 0.9 3.5 0.00 0.19 0.02 66 1014.4
20260505232005 68 196 0.0 1.7 0.00 0.20 0.02 66 1014.5
20260505231005 68 184 0.0 1.7 0.00 0.20 0.02 65 1014.5
20260505230005 68 122 0.9 2.6 0.00 0.21 0.02 65 1014.5
20260505225006 68 214 0.0 3.5 0.00 0.22 0.02 65 1014.6
20260505224026 68 246 0.9 2.6 0.00 0.23 0.02 66 1014.7
20260505223027 68 248 0.9 3.5 0.00 0.25 0.02 64 1014.7
20260505222005 68 166 0.9 2.6 0.00 0.26 0.02 65 1014.8
20260505221005 68 157 0.0 1.7 0.00 0.27 0.02 65 1014.8
20260505220005 68 126 0.9 2.6 0.00 0.28 0.02 64 1014.9
20260505215005 68 161 0.0 2.6 0.00 0.29 0.02 66 1015.0
20260505214005 67 110 0.0 1.7 0.00 0.30 0.02 66 1015.1
20260505213005 66 217 0.0 1.7 0.00 0.31 0.02 68 1015.4
20260505212026 66 210 0.0 2.6 0.00 0.31 0.02 67 1015.6
20260505211005 66 262 0.0 2.6 0.00 0.31 0.02 68 1015.6
20260505210005 65 211 0.0 1.7 0.00 0.31 0.02 69 1015.6
20260505205005 65 257 0.0 1.7 0.00 0.31 0.02 69 1015.7
20260505204005 64 265 0.9 2.6 0.00 0.31 0.02 70 1015.6
20260505203026 64 252 0.0 1.7 0.00 0.31 0.02 71 1015.7
20260505202005 64 189 0.0 1.7 0.00 0.31 0.02 70 1015.7
20260505201005 64 254 0.0 1.7 0.00 0.31 0.02 70 1015.7
20260505200005 64 245 0.0 1.7 0.00 0.31 0.02 71 1015.8
20260505195005 63 247 0.0 1.7 0.00 0.31 0.02 70 1015.8
20260505194005 63 256 0.0 2.6 0.00 0.31 0.02 70 1015.8
20260505193005 63 132 0.0 1.7 0.00 0.31 0.02 69 1015.8
20260505192005 63 174 0.0 1.7 0.00 0.31 0.02 71 1015.9
20260505191005 63 292 0.0 2.6 0.00 0.31 0.02 72 1015.8
20260505190005 63 248 0.0 1.7 0.00 0.31 0.02 70 1015.8
20260505185005 63 214 0.0 1.7 0.00 0.31 0.02 71 1015.8
20260505184005 63 218 0.0 2.6 0.00 0.31 0.02 72 1015.8
20260505183005 62 238 0.9 2.6 0.00 0.31 0.02 73 1015.8
20260505182005 62 236 0.9 2.6 0.00 0.31 0.02 73 1015.7
20260505181005 63 261 0.9 3.5 0.00 0.31 0.02 73 1015.7
20260505180005 63 112 0.9 1.7 0.00 0.31 0.02 73 1015.7
20260505175005 62 122 0.9 2.6 0.00 0.31 0.02 74 1015.6
20260505174005 62 169 0.9 3.5 0.00 0.31 0.02 74 1015.5
20260505173005 62 139 0.0 1.7 0.00 0.31 0.02 76 1015.4
20260505172005 61 107 0.0 1.7 0.00 0.31 0.02 77 1015.4
20260505171005 61 89 0.0 2.6 0.00 0.31 0.02 79 1015.3
20260505170026 60 31 0.9 4.3 0.00 0.31 0.02 76 1015.5
20260505165005 61 84 0.9 2.6 0.00 0.31 0.02 75 1015.5
20260505164005 61 59 0.9 3.5 0.00 0.31 0.02 78 1015.4
20260505163005 59 323 0.0 1.7 0.00 0.31 0.02 80 1015.3
20260505162005 59 69 0.0 1.7 0.00 0.31 0.02 78 1015.2
20260505161005 59 99 0.0 1.7 0.00 0.31 0.02 83 1015.1
20260505153005 57 95 0.0 1.7 0.00 0.31 0.02 89 1015.1
20260505152005 56 142 0.0 1.7 0.00 0.31 0.02 91 1015.1
20260505151004 55 170 0.0 1.7 0.00 0.31 0.02 91 1014.9